TimeCDT,TemperatureF,Dew PointF,Humidity,Sea Level PressureIn,VisibilityMPH,Wind Direction,Wind SpeedMPH,Gust SpeedMPH,PrecipitationIn,Events,Conditions,WindDirDegrees,DateUTC
12:15 AM,71.6,71.6,100,29.93,4.0,South,8.1,-,N/A,,Overcast,170,2013-10-15 05:15:00
12:35 AM,71.6,71.6,100,29.92,5.0,South,9.2,-,N/A,,Overcast,180,2013-10-15 05:35:00
12:55 AM,71.6,71.6,100,29.92,7.0,South,8.1,-,N/A,,Overcast,170,2013-10-15 05:55:00
1:15 AM,71.6,71.6,100,29.92,7.0,South,10.4,-,N/A,,Overcast,180,2013-10-15 06:15:00
1:35 AM,69.8,69.8,100,29.98,4.0,West,20.7,32.2,0.05,Rain-Thunderstorm,Heavy Thunderstorms and Rain,280,2013-10-15 06:35:00
1:55 AM,64.4,64.4,100,29.97,3.0,West,5.8,-,0.50,Rain-Thunderstorm,Heavy Thunderstorms and Rain,280,2013-10-15 06:55:00
2:35 AM,66.2,66.2,100,29.95,3.0,SW,3.5,-,0.16,Rain-Thunderstorm,Heavy Thunderstorms and Rain,220,2013-10-15 07:35:00
2:55 AM,64.4,64.4,100,29.92,10.0,Calm,Calm,-,0.19,Rain-Thunderstorm,Light Thunderstorms and Rain,0,2013-10-15 07:55:00
3:15 AM,64.4,64.4,100,29.92,10.0,Calm,Calm,-,N/A,Rain-Thunderstorm,Light Thunderstorms and Rain,0,2013-10-15 08:15:00
3:35 AM,66.2,66.2,100,29.95,10.0,North,4.6,-,N/A,,Mostly Cloudy,350,2013-10-15 08:35:00
3:55 AM,66.2,66.2,100,29.94,10.0,Calm,Calm,-,N/A,,Overcast,0,2013-10-15 08:55:00
4:15 AM,66.2,66.2,100,29.94,4.0,Calm,Calm,-,0.07,Rain,Heavy Rain,0,2013-10-15 09:15:00
4:35 AM,66.2,66.2,100,29.94,10.0,Calm,Calm,-,0.08,Rain,Light Rain,0,2013-10-15 09:35:00
4:55 AM,66.2,66.2,100,29.95,7.0,NNW,4.6,-,0.08,Rain,Light Rain,330,2013-10-15 09:55:00
5:15 AM,64.4,64.4,100,29.96,10.0,NNW,10.4,-,0.01,,Overcast,340,2013-10-15 10:15:00
5:35 AM,62.6,62.6,100,29.97,10.0,North,15.0,-,0.01,Rain,Light Rain,350,2013-10-15 10:35:00
5:55 AM,62.6,62.6,100,29.98,10.0,North,10.4,-,0.01,,Overcast,360,2013-10-15 10:55:00
6:15 AM,62.6,62.6,100,29.98,10.0,North,12.7,-,N/A,,Overcast,360,2013-10-15 11:15:00
6:35 AM,60.8,60.8,100,29.99,10.0,North,12.7,20.7,N/A,,Overcast,360,2013-10-15 11:35:00
6:55 AM,60.8,60.8,100,29.99,10.0,North,10.4,-,N/A,,Overcast,360,2013-10-15 11:55:00
7:15 AM,59.0,59.0,100,30.00,10.0,NNW,16.1,-,N/A,,Overcast,340,2013-10-15 12:15:00
7:35 AM,59.0,57.2,94,30.02,10.0,North,18.4,24.2,N/A,,Overcast,350,2013-10-15 12:35:00
7:55 AM,57.2,55.4,94,30.04,10.0,NNW,11.5,19.6,N/A,,Overcast,340,2013-10-15 12:55:00
8:35 AM,55.4,53.6,94,30.06,10.0,North,12.7,-,N/A,,Overcast,350,2013-10-15 13:35:00
8:55 AM,55.4,53.6,94,30.06,10.0,North,12.7,-,N/A,,Overcast,350,2013-10-15 13:55:00
9:55 AM,55.4,51.8,88,30.08,10.0,North,12.7,-,N/A,,Overcast,360,2013-10-15 14:55:00
10:15 AM,55.4,51.8,88,30.08,10.0,North,13.8,18.4,N/A,,Overcast,360,2013-10-15 15:15:00
10:35 AM,55.4,50.0,82,30.10,10.0,North,13.8,21.9,N/A,,Mostly Cloudy,360,2013-10-15 15:35:00
11:15 AM,55.4,50.0,82,30.11,10.0,North,11.5,19.6,N/A,,Overcast,10,2013-10-15 16:15:00
11:35 AM,55.4,50.0,82,30.12,10.0,North,11.5,-,N/A,,Overcast,360,2013-10-15 16:35:00
11:55 AM,55.4,50.0,82,30.11,10.0,North,12.7,-,N/A,,Overcast,360,2013-10-15 16:55:00
12:35 PM,55.4,50.0,82,30.11,10.0,NNW,11.5,-,N/A,,Overcast,340,2013-10-15 17:35:00
12:55 PM,55.4,50.0,82,30.11,10.0,NNW,10.4,-,N/A,,Overcast,340,2013-10-15 17:55:00
1:15 PM,55.4,50.0,82,30.09,10.0,North,9.2,-,N/A,,Overcast,350,2013-10-15 18:15:00
1:55 PM,55.4,50.0,82,30.09,10.0,North,11.5,-,N/A,,Overcast,350,2013-10-15 18:55:00
2:15 PM,57.2,50.0,77,30.09,10.0,NNW,10.4,-,N/A,,Overcast,340,2013-10-15 19:15:00
2:35 PM,57.2,50.0,77,30.07,10.0,North,8.1,-,N/A,,Overcast,350,2013-10-15 19:35:00
2:55 PM,59.0,50.0,72,30.07,10.0,NNW,9.2,-,N/A,,Overcast,340,2013-10-15 19:55:00
3:15 PM,59.0,50.0,72,30.05,10.0,North,11.5,-,N/A,,Overcast,360,2013-10-15 20:15:00
3:55 PM,59.0,48.2,67,30.05,10.0,North,11.5,17.3,N/A,,Mostly Cloudy,10,2013-10-15 20:55:00
5:15 PM,59.0,48.2,67,30.07,10.0,North,6.9,-,N/A,,Overcast,350,2013-10-15 22:15:00
5:35 PM,59.0,48.2,67,30.07,10.0,North,5.8,-,N/A,,Overcast,360,2013-10-15 22:35:00
5:55 PM,59.0,50.0,72,30.07,10.0,North,4.6,-,N/A,,Overcast,360,2013-10-15 22:55:00
6:15 PM,59.0,50.0,72,30.07,10.0,North,5.8,-,N/A,,Mostly Cloudy,360,2013-10-15 23:15:00
6:35 PM,59.0,50.0,72,30.07,10.0,North,4.6,-,N/A,,Overcast,360,2013-10-15 23:35:00
6:55 PM,59.0,50.0,72,30.08,10.0,North,4.6,-,N/A,,Overcast,350,2013-10-15 23:55:00
7:15 PM,59.0,51.8,77,30.08,10.0,Calm,Calm,-,N/A,,Overcast,0,2013-10-16 00:15:00
7:35 PM,59.0,51.8,77,30.08,10.0,North,3.5,-,N/A,,Mostly Cloudy,360,2013-10-16 00:35:00
7:55 PM,59.0,51.8,77,30.09,10.0,North,4.6,-,N/A,,Scattered Clouds,350,2013-10-16 00:55:00
8:15 PM,57.2,51.8,82,30.10,10.0,North,4.6,-,N/A,,Scattered Clouds,350,2013-10-16 01:15:00
8:35 PM,57.2,51.8,82,30.10,10.0,North,3.5,-,N/A,,Mostly Cloudy,350,2013-10-16 01:35:00
8:55 PM,55.4,51.8,88,30.10,10.0,North,3.5,-,N/A,,Mostly Cloudy,360,2013-10-16 01:55:00
9:15 PM,57.2,51.8,82,30.11,10.0,North,3.5,-,N/A,,Mostly Cloudy,350,2013-10-16 02:15:00
9:35 PM,57.2,51.8,82,30.11,10.0,North,5.8,-,N/A,,Mostly Cloudy,360,2013-10-16 02:35:00
9:55 PM,55.4,51.8,88,30.12,10.0,North,5.8,-,N/A,,Scattered Clouds,360,2013-10-16 02:55:00
10:15 PM,55.4,50.0,82,30.13,10.0,North,4.6,-,N/A,,Mostly Cloudy,360,2013-10-16 03:15:00
10:35 PM,55.4,50.0,82,30.13,10.0,North,4.6,-,N/A,,Scattered Clouds,360,2013-10-16 03:35:00
10:55 PM,55.4,50.0,82,30.13,10.0,North,4.6,-,N/A,,Mostly Cloudy,360,2013-10-16 03:55:00
11:15 PM,55.4,51.8,88,30.13,10.0,North,4.6,-,N/A,,Scattered Clouds,360,2013-10-16 04:15:00
11:35 PM,55.4,51.8,88,30.12,10.0,North,6.9,-,N/A,,Scattered Clouds,360,2013-10-16 04:35:00
11:55 PM,55.4,51.8,88,30.12,10.0,North,4.6,-,N/A,,Clear,360,2013-10-16 04:55:00